Location: Borkenes
(68.7830°N, 16.1830°E)
Time: 11:23:28
(UTC+01:00)

Vanguard 2 - Visible Passes

Search period start: 06 December 2019 00:00
Search period end: 16 December 2019 00:00
Orbit: 553 x 2938 km, 32.9° (Epoch: 05 December)

Date Brightness Start Highest point End Pass type
(mag) Time Alt. Az. Time Alt. Az. Time Alt. Az.
06 Dec 11.8 03:52:42 10° S 03:53:53 10° S 03:55:04 10° SSE visible
07 Dec 11.7 04:06:58 10° S 04:10:36 11° S 04:14:08 10° SSE visible
08 Dec 11.7 04:22:54 10° SSW 04:27:20 11° S 04:31:35 10° SSE visible
09 Dec 11.7 02:34:54 10° S 02:37:21 10° SSE 02:39:48 10° SSE visible
09 Dec 11.7 04:39:32 10° SSW 04:44:01 11° S 04:48:21 10° S visible
10 Dec 11.6 02:51:40 11° S 02:54:01 11° S 02:58:27 10° SSE visible
10 Dec 11.7 04:56:50 10° SSW 05:00:42 11° SSW 05:04:27 10° S visible
11 Dec 11.6 03:08:27 12° S 03:10:42 12° S 03:15:58 10° SSE visible
11 Dec 11.7 05:15:22 10° SSW 05:17:20 10° SSW 05:19:17 10° SSW visible
12 Dec 11.6 03:25:12 12° S 03:27:23 12° S 03:32:52 10° SSE visible
13 Dec 11.6 03:41:58 12° SSW 03:44:04 12° S 03:49:16 10° S visible
14 Dec 11.7 01:57:19 11° SSE 01:57:19 11° SSE 01:58:31 10° SSE visible
14 Dec 11.6 03:58:43 11° SSW 04:00:44 11° SSW 04:05:01 10° S visible
15 Dec 11.7 02:14:05 11° SSE 02:14:05 11° SSE 02:15:39 10° SSE visible
15 Dec 11.6 04:15:35 10° SSW 04:17:23 10° SSW 04:19:12 10° SSW visible
